Location: Newark
(45.4422°N, 16.2769°E)
Time: 10:41:43
(UTC+00:00)

Tiros 1 despin weight - Pass Details

Date: 21 December 2019
Orbit: 594 x 642 km, 48.2° (Epoch: 24 January)

Event Time Altitude Azimuth Distance (km) Brightness Sun altitude
Rises 02:47:44 0° 277° (W) 2,909 - -38.1°
Reaches altitude 10° 02:50:06 10° 281° (W) 1,994 - -37.7°
Maximum altitude 02:54:38 60° 2° (N) 704 - -36.9°
Exits shadow 02:58:03 17° 80° (E) 1,566 ? -36.3°
Drops below altitude 10° 02:59:06 10° 83° (E) 1,961 ? -36.1°
Sets 03:01:25 0° 87° (E) 2,857 ? -35.7°
